sat.trackr.live / text

‹ back to catalog

STARLINK-34989

NORAD 65251 · 2025-179S

PAYLOAD ACTIVE UNKNOWN

§ Identity

Operator
Country
US
Launch date
2025-08-18
Launch site
AFWTR
Launch vehicle
Mass (kg)
RCS (m²)

Purposes: comms

External: N2YO · Heavens-Above · Gunter

§ Orbital elements

Epoch: 2026-05-25T03:05:13.276032Z

Period
95.64 min
Inclination
97.4462°
Eccentricity
0.0001268
Mean motion
15.05657215 rev/d
Perigee alt
548.6 km
Apogee alt
550.4 km
Semi-major
6,927.6 km
B*
1.3202e-4
RAAN
187.9958°
Arg perigee
103.2746°
Mean anomaly
256.8622°
Rev number
4,349

§ Raw data

STARLINK-349891 65251U 25179S   26145.12862588  .00001847  00000+0  13202-3 0  99912 65251  97.4462 187.9958 0001268 103.2746 256.8622 15.05657215 43498

JSON: /api/v1/satellites/65251 · /tle

For live sub-satellite position, see the globe view (requires WebGL).

§ Visibility from observer

Set your observer location to see the next 7 days of passes ≥ 10°. The values pass through the URL so the page stays shareable.

No JS? Fill the form by hand. The geolocation button needs JavaScript.